www.pogodaiklimat.ru

Погода и климат >> Архив погоды >> Бразилия >> Calcanhar


ПОГОДА в Calcanhar

  • Прогноз погоды в Calcanhar
  • Монитор погоды в Calcanhar
  • Климат города

АРХИВ ПОГОДЫ в Calcanhar

Время (UTC), дата Ветер
(напр.,м/с)
 
Видим.   Явления Облачность Т
(С)
Тd
(С)
f
(%)
Тe
(С)
Тes
(С)
Комфортность P
(гПа)
Po
(гПа)
Тmin
(С)
Tmax
(С)
R
(мм)
R24
(мм)
S
(см)
13 17.04 С 2 н/о н/о +23.4 -24.3 3 +20 +20 1015.0 1013.9
18 17.04 С 2
{2}
н/о н/о +25.0 -23.2 3 +21 +21 комфорт 1012.6 1011.5
19 17.04 С 2
{4}
н/о н/о +25.1 -23.2 3 +21 +21 комфорт 1012.6 1011.5
10 18.04 С 2
{4}
н/о н/о +25.2 -23.2 3 +21 +21 комфорт 1015.1 1014.0
11 18.04 С 3
{4}
н/о н/о +27.2 -21.8 3 +23 +23 комфорт 1015.4 1014.3
12 18.04 С 3
{5}
н/о н/о +28.1 -7.4 9 +25 +25 комфорт 1015.8 1014.7
13 18.04 С 4
{6}
н/о н/о +29.7 +25 +25 комфорт 1015.6 1014.5
14 18.04 С 4
{6}
н/о н/о +29.6 +5.5 22 +28 +28 жарко 1015.0 1013.9
15 18.04 С 4
{6}
н/о н/о +29.8 -20.0 3 +25 +25 комфорт 1014.2 1013.1
16 18.04 С 4
{6}
н/о н/о +29.6 +27.1 86 +47 +47 опасность
перегрева
1013.7 1012.6
17 18.04 С 5
{6}
н/о н/о +29.4 +26.1 82 +44 +44 опасность
перегрева
1013.0 1011.9
18 18.04 С 4
{6}
н/о н/о +29.1 -23.5 2 +40 +40 очень
душно
1012.9 1011.8
19 18.04 С 4
{6}
н/о н/о +28.7 -20.8 3 +24 +24 комфорт 1013.2 1012.1
20 18.04 С 4
{5}
н/о н/о +27.8 -21.4 3 +23 +23 комфорт 1013.4 1012.3
21 18.04 С 4
{5}
н/о н/о +27.5 -21.6 3 +23 +23 комфорт 1013.6 1012.5
22 18.04 С 3
{5}
н/о н/о +27.2 -21.8 3 +23 +23 комфорт 1014.1 1013.0
23 18.04 С 4
{6}
н/о н/о +27.3 -21.7 3 +23 +23 комфорт 1014.9 1013.8
00 19.04 С 4
{6}
н/о н/о +27.3 -21.7 3 +23 +23 комфорт 1015.5 1014.4
01 19.04 С 4
{6}
н/о н/о +27.4 -21.6 3 +23 +23 комфорт 1015.8 1014.7
02 19.04 С 4
{6}
н/о н/о +27.3 -21.7 3 +23 +23 комфорт 1015.7 1014.6
03 19.04 С 2
{5}
н/о н/о +24.9 -23.3 3 +21 +21 комфорт 1015.5 1014.4
04 19.04 С 2
{3}
н/о н/о +24.5 -23.6 3 +21 +21 комфорт 1014.8 1013.7
05 19.04 С 2
{3}
н/о н/о +23.9 -24.0 3 +21 +21 комфорт 1014.6 1013.5
10 19.04 С 3 н/о н/о +25.6 -22.9 3 +22 +22 комфорт 1014.7 1013.6
11 19.04 С 4
{5}
н/о н/о +27.9 +23 +23 комфорт 1014.9 1013.8
12 19.04 С 3
{5}
н/о н/о +29.2 -20.4 3 +25 +25 комфорт 1015.2 1014.1
13 19.04 С 4
{5}
н/о н/о +29.8 -20.1 3 +25 +25 комфорт 1015.0 1013.9
14 19.04 С 5
{6}
н/о н/о +29.8 -20.0 3 +25 +25 комфорт 1014.6 1013.5
15 19.04 С 4
{6}
н/о н/о +29.9 -19.9 3 +25 +25 комфорт 1013.9 1012.8
16 19.04 С 5
{6}
н/о н/о +29.6 -20.2 3 +25 +25 комфорт 1013.4 1012.3
17 19.04 С 4
{6}
н/о н/о +29.6 -20.2 3 +25 +25 комфорт 1012.6 1011.5
18 19.04 С 4
{6}
н/о н/о +29.0 -20.6 3 +24 +24 комфорт 1012.5 1011.4
19 19.04 С 4
{5}
н/о н/о +28.6 -20.8 3 +24 +24 комфорт 1012.6 1011.5
20 19.04 С 4
{5}
н/о н/о +27.7 +23 +23 комфорт 1012.8 1011.7
21 19.04 С 4
{5}
н/о н/о +27.5 +23 +23 комфорт 1013.1 1012.0
22 19.04 С 3
{5}
н/о н/о +27.5 +23 +23 комфорт 1013.7 1012.6
23 19.04 С 2
{5}
н/о н/о +27.1 +22 +22 комфорт 1014.3 1013.2
00 20.04 С 4
{5}
н/о н/о +27.6 +23 +23 комфорт 1014.6 1013.5
01 20.04 С 4
{5}
н/о н/о +27.5 +23 +23 комфорт 1014.5 1013.4
02 20.04 С 2
{5}
н/о н/о +27.2 +22 +22 комфорт 1014.2 1013.1
03 20.04 С 2
{4}
н/о н/о +25.5 +21 +21 комфорт 1013.7 1012.6
04 20.04 С 2
{3}
н/о н/о +25.2 +21 +21 комфорт 1013.1 1012.0
05 20.04 С 2
{3}
н/о н/о +24.8 -23.4 3 +21 +21 комфорт 1012.9 1011.8
06 20.04 С 3
{4}
н/о н/о +24.8 -23.4 3 +21 +21 комфорт 1012.4 1011.3
07 20.04 С 3
{4}
н/о н/о +24.4 -23.7 3 +21 +21 комфорт 1012.2 1011.1
08 20.04 С 2
{4}
н/о н/о +23.7 -24.1 3 +20 +20 1012.5 1011.4
09 20.04 С 2
{3}
н/о н/о +23.7 -24.1 3 +20 +20 1012.8 1011.7
10 20.04 С 3
{4}
н/о н/о +25.7 -22.8 3 +22 +22 комфорт 1013.2 1012.1
11 20.04 С 3
{4}
н/о н/о +28.1 +23 +23 комфорт 1013.6 1012.5
12 20.04 С 3
{5}
н/о н/о +29.2 +24 +24 комфорт 1014.0 1012.9
13 20.04 С 4
{6}
н/о н/о +29.7 +25 +25 комфорт 1014.0 1012.9
14 20.04 С 4
{6}
н/о н/о +29.5 +24 +24 комфорт 1013.5 1012.4
15 20.04 С 5
{5}
н/о н/о +29.5 +24 +24 комфорт 1012.6 1011.5
16 20.04 С 5
{6}
н/о н/о +29.7 +25 +25 комфорт 1011.4 1010.3
17 20.04 С 5
{6}
н/о н/о +29.5 +24 +24 комфорт 1010.7 1009.6
18 20.04 С 5
{6}
н/о н/о +29.1 +24 +24 комфорт 1010.6 1009.5
19 20.04 С 4
{6}
н/о н/о +28.3 +23 +23 комфорт 1010.9 1009.8
20 20.04 С 4
{6}
н/о н/о +28.1 +23 +23 комфорт 1010.8 1009.7
21 20.04 С 4
{6}
н/о н/о +27.8 +23 +23 комфорт 1011.6 1010.5
22 20.04 С 2
{5}
н/о н/о +27.6 +23 +23 комфорт 1012.4 1011.3
23 20.04 С 3
{5}
н/о н/о +27.5 +23 +23 комфорт 1013.0 1011.9
00 21.04 С 3
{5}
н/о н/о +27.8 +23 +23 комфорт 1013.4 1012.3
01 21.04 С 3
{5}
н/о н/о +26.2 +22 +22 комфорт 1013.4 1012.3
02 21.04 С 2
{4}
н/о н/о +25.6 +21 +21 комфорт 1013.0 1011.9
03 21.04 С 2
{3}
н/о н/о +24.9 +21 +21 комфорт 1012.2 1011.1
04 21.04 С 2
{3}
н/о н/о +24.4 +20 +20 1011.7 1010.6
05 21.04 С 2
{3}
н/о н/о +24.0 +20 +20 1011.0 1009.9
06 21.04 С 2
{3}
н/о н/о +23.8 +20 +20 1010.7 1009.6
07 21.04 С 2
{3}
н/о н/о +23.5 +20 +20 1010.4 1009.3
08 21.04 С 2
{4}
н/о н/о +23.3 +19 +19 1010.6 1009.5
09 21.04 С 2
{3}
н/о н/о +23.6 -17.3 5 +21 +21 комфорт 1011.2 1010.1
10 21.04 С 3
{4}
н/о н/о +25.7 -22.8 3 +22 +22 комфорт 1011.5 1010.4
11 21.04 С 3
{5}
н/о н/о +28.0 +23 +23 комфорт 1012.2 1011.1
12 21.04 С 3
{5}
н/о н/о +28.8 +24 +24 комфорт 1012.5 1011.4
13 21.04 С 3
{5}
н/о н/о +30.2 +25 +25 комфорт 1012.3 1011.2
14 21.04 С 4
{6}
н/о н/о +30.2 +25 +25 комфорт 1011.8 1010.7
15 21.04 С 3
{5}
н/о н/о +30.0 +25 +25 комфорт 1011.1 1010.0
16 21.04 С 3
{6}
н/о н/о +29.2 +24 +24 комфорт 1010.2 1009.1
17 21.04 С 4
{5}
н/о н/о +28.9 +24 +24 комфорт 1009.4 1008.3
18 21.04 С 4
{5}
н/о н/о +28.8 +24 +24 комфорт 1009.4 1008.3
19 21.04 С 3
{5}
н/о н/о +27.8 +23 +23 комфорт 1009.6 1008.5
20 21.04 С 3
{5}
н/о н/о +27.6 +23 +23 комфорт 1009.9 1008.8
21 21.04 С 2
{5}
н/о н/о +27.2 +22 +22 комфорт 1010.4 1009.3
22 21.04 С 4
{5}
н/о н/о +27.7 +23 +23 комфорт 1010.8 1009.7
23 21.04 С 3
{5}
н/о н/о +27.8 +23 +23 комфорт 1011.6 1010.5
00 22.04 С 4
{5}
н/о н/о +27.8 +23 +23 комфорт 1011.7 1010.6
01 22.04 С 4
{5}
н/о н/о +27.7 +23 +23 комфорт 1012.0 1010.9
02 22.04 С 3
{5}
н/о н/о +27.6 +23 +23 комфорт 1011.9 1010.8
03 22.04 С 4
{5}
н/о н/о +27.6 +23 +23 комфорт 1011.1 1010.0
04 22.04 С 4
{5}
н/о н/о +27.6 +23 +23 комфорт 1010.4 1009.3
05 22.04 С 3
{5}
н/о н/о +26.5 +22 +22 комфорт 1009.8 1008.7
06 22.04 С 2
{4}
н/о н/о +25.6 +21 +21 комфорт 1009.7 1008.6
07 22.04 С 3
{4}
н/о н/о +27.3 +23 +23 комфорт 1009.7 1008.6
08 22.04 С 2
{4}
н/о н/о +24.5 +21 +21 комфорт 1009.9 1008.8
09 22.04 С 2
{2}
н/о н/о +24.2 +20 +20 1010.4 1009.3
10 22.04 С 2
{2}
н/о н/о +26.0 +22 +22 комфорт 1010.8 1009.7
11 22.04 С 4
{5}
н/о н/о +29.1 +24 +24 комфорт 1011.5 1010.4
12 22.04 С 4
{5}
н/о н/о +29.7 +25 +25 комфорт 1012.0 1010.9
13 22.04 С 3
{5}
н/о н/о +30.2 +25 +25 комфорт 1012.0 1010.9
14 22.04 С 4
{5}
н/о н/о +30.1 +25 +25 комфорт 1011.7 1010.6
15 22.04 С 4
{5}
н/о н/о +29.9 +25 +25 комфорт 1011.1 1010.0
16 22.04 С 4
{5}
н/о н/о +30.0 +25 +25 комфорт 1010.3 1009.2
17 22.04 С 4
{5}
н/о н/о +30.2 +25 +25 комфорт 1009.6 1008.5
18 22.04 С 4
{5}
н/о н/о +29.8 +25 +25 комфорт 1009.6 1008.5
19 22.04 С 4
{5}
н/о н/о +28.9 +24 +24 комфорт 1009.9 1008.8
20 22.04 С 4
{5}
н/о н/о +28.5 +24 +24 комфорт 1010.1 1009.0
21 22.04 С 4
{5}
н/о н/о +28.2 +23 +23 комфорт 1010.5 1009.4
22 22.04 С 4
{5}
н/о н/о +28.2 +23 +23 комфорт 1011.2 1010.1
23 22.04 С 4
{5}
н/о н/о +28.0 +23 +23 комфорт 1011.8 1010.7
00 23.04 С 4
{5}
н/о н/о +28.1 +23 +23 комфорт 1012.3 1011.2
01 23.04 С 4
{5}
н/о н/о +28.0 +23 +23 комфорт 1012.7 1011.6
02 23.04 С 4
{5}
н/о н/о +28.1 +23 +23 комфорт 1012.6 1011.5
03 23.04 С 3
{5}
н/о н/о +27.9 +23 +23 комфорт 1012.1 1011.0
04 23.04 С 2
{5}
н/о н/о +25.9 +22 +22 комфорт 1011.9 1010.8
05 23.04 С 2
{4}
н/о н/о +24.7 +21 +21 комфорт 1011.5 1010.4
10 23.04 С 3
{4}
н/о н/о +25.2 -23.1 3 +21 +21 комфорт 1011.9 1010.8
11 23.04 С 3
{5}
н/о н/о +27.2 -21.8 3 +23 +23 комфорт 1012.2 1011.1
12 23.04 С 3
{5}
н/о н/о +28.6 +24 +24 комфорт 1012.3 1011.2
13 23.04 С 5
{7}
н/о н/о +28.2 +23 +23 комфорт 1012.3 1011.2
14 23.04 С 5
{7}
н/о н/о +28.6 +24 +24 комфорт 1011.9 1010.8
15 23.04 С 4
{8}
н/о н/о +28.2 +23 +23 комфорт 1011.3 1010.2
16 23.04 С 5
{6}
н/о н/о +28.7 +24 +24 комфорт 1010.9 1009.8
17 23.04 С 6
{8}
н/о н/о +27.9 +23 +23 комфорт 1010.9 1009.8

 

Местоположение метеостанции Calcanhar (Бразилия): широта -5.17 долгота -35.48 высота над уровнем моря 19 м.

В архиве по умолчанию представлена погода в Calcanhar за последнюю неделю. Архивные данные за месяц целиком и за предыдущие месяцы, начиная с января 2011 года, Вы можете получить, выбрав интересующий диапазон дат из раскрывающегося списка и нажав кнопку "Ввод!".


*Определитесь, кто Вы:
робот инопланетянин человек

Внимание! Время в таблицах - всемирное. Для получения местного времени необходимо прибавить поправку, которая в Calcanhar равна -3 ч.

Смотрите также архив погоды в соседних городах и на ближайших метеорологических станциях:

Погода в Natal (Бразилия) (80 км)
Погода в Natal (Бразилия) (87 км)
Погода в Macau (Бразилия) (128 км)
Погода в Santa Cruz (Бразилия) (133 км)
Погода в Macau (Бразилия) (137 км)
Погода в Camaratuba (Бразилия) (166 км)
Погода в Areia (Бразилия) (201 км)
Погода в Mossoro (Бразилия) (210 км)
Погода в Caico (Бразилия) (229 км)
Погода в Joao Pessoa (Бразилия) (231 км)

Пояснения к столбцам:

Ветер - указаны скорость ветра в м/с - средняя за 10 мин, порывы в срок и между сроками (в фигурных скобках) и направление, откуда дует ветер: С - северный, СВ - северо-восточный, В - восточный, ЮВ - юго-восточный, Ю - южный, ЮЗ - юго-западный, З - западный, СЗ - северо-западный.
Видимость - горизонтальная дальность видимости в метрах или километрах. При видимости от 1 до 10 км при отсутствии осадков обычно наблюдается дымка, при ухудшении видимости до 1 км и менее - туман. В сухую погоду видимость может ухудшаться дымом, пылью или мглою.
Явления - указаны атмосферные явления, наблюдавшиеся в срок или в последний час перед сроком; фигурными скобками обозначены явления, наблюдавшиеся между сроками (за 1-3 часа до срока); квадратными скобками обозначены град или гололедные отложения с указанием их диаметра в мм.
Облачность - указаны через наклонную черту общая и нижняя облачность в баллах и высота нижней границы облаков в метрах; квадратными скобками обозначены формы облаков: Ci - перистые, Cs - перисто-слоистые, Cc - перисто-кучевые, Ac - высококучевые, As - высокослоистые, Sc - слоисто-кучевые, Ns - слоисто-дождевые, Cu - кучевые, Cb - кучево-дождевые. Подробнее классификацию облаков см. в Атласе облаков (PDF).
T - Температура воздуха - температура, измеренная на высоте 2 м над землей.
Td - Температура точки росы - температура, при понижении до которой содержащийся в воздухе водяной пар достигнет насыщения.
f - Относительная влажность воздуха - влажноcть воздуха, измеренная на высоте 2 м над землей.
Te - Эффективная температура - температура, которую ощущает одетый по сезону человек в тени. Характеристика душности погоды. При расчете учитывается влияние влажности воздуха и скорости ветра на теплоощущения человека.
Tes - Эффективная температура на солнце - температура, которую ощущает человек, с поправкой на солнечный нагрев. Характеристика знойности погоды. Зависит от высоты солнца над горизонтом, облачности и скорости ветра. Ночью, в пасмурную погоду, а также при ветре 12 м/с и более поправка равна нулю.
P - Атмосферное давление - приведенное к уровню моря атмосферное давление.
Po - Атмосферное давление - измеренное на уровне метеостанции атмосферное давление.
Tmin - Минимальная температура - минимум температуры воздуха на высоте 2 м над землей.
Tmax - Максимальная температура - максимум температуры воздуха на высоте 2 м над землей.
R - Количество осадков - Количество выпавших осадков за период времени, мм. При наведении курсора мыши на число - период времени, за который выпало указанное количество осадков.
R24 - Количество осадков - Количество выпавших осадков за 24 часа, мм.
S - Снежный покров - Высота снежного покрова, см. При наведении курсора мыши на число - состояние снежного покрова и степень покрытия местности в баллах.